Regional Weather Roundup
Issued by NWS Cleveland, OH

Home | Current Version | Previous Version | Text Only | Print | Product List | Glossary Off
Versions: 1 2 3 4 5 6 7 8 9 10 11 12 13 14 15 16 17 18 19 20 21 22 23 24 25 26 27 28 29 30 31 32 33 34 35 36 37 38 39 40 41 42 43 44 45 46 47 48 49 50

000
ASUS41 KCLE 010802
RWRCLE
OHIO REGIONAL WEATHER ROUNDUP
NATIONAL WEATHER SERVICE CLEVELAND, OH
400 AM EDT FRI AUG 01 2014

NOTE: "FAIR" INDICATES FEW OR NO CLOUDS BELOW 12,000 FEET WITH NO
SIGNIFICANT WEATHER AND/OR OBSTRUCTIONS TO VISIBILITY.

OHZ001>008-015>018-024>027-034-035-043-044-010900-
   NORTHWEST OHIO

CITY           SKY/WX    TMP DP  RH WIND       PRES   REMARKS
DEFIANCE       PTCLDY    62  60  93 CALM      30.07S
FINDLAY        CLEAR     62  58  86 S3        30.07S
TOLEDO EXPRESS MOCLDY    60  59  96 CALM      30.06S
TOLEDO EXEC    PTCLDY    62  58  86 S3        30.07S
LIMA           CLEAR     63  58  83 CALM      30.09S
$$

OHZ009>014-019>023-028>033-038-089-010900-
   NORTHEAST OHIO

CITY           SKY/WX    TMP DP  RH WIND       PRES   REMARKS
CLE-HOPKINS    PTCLDY    65  58  78 CALM      30.10S
CLE-LAKEFRONT  CLEAR     68  58  70 S7        30.07R
CUY CO. ARPT   NOT AVBL
LORAIN-ELYRIA  CLEAR     65  58  78 SW3       30.09S
ASHTABULA      CLEAR     61  57  87 S6        30.10S
AKRON-CANTON   CLEAR     64  58  80 S3        30.11S
WOOSTER        CLEAR     56  52  86 CALM      30.12R FOG
MANSFIELD      CLEAR     60  58  92 CALM      30.11S
YOUNGSTOWN     PTCLDY    63  58  83 S5        30.11S
$$

OHZ042-051>053-060>062-070>072-077>081-010900-
  SOUTHWEST OHIO

CITY           SKY/WX    TMP DP  RH WIND       PRES   REMARKS
CINC-COVINGTON CLEAR     64  59  83 CALM      30.09S
CINC-LUNKEN    CLEAR     61  60  97 CALM      30.09S FOG
HAMILTON       CLOUDY    61  60  97 CALM      30.09F FOG
DAYTON         CLEAR     64  59  83 CALM      30.10F
WRIGHT-PAT AFB PTCLDY    62  60  91 SE1       30.10S
DAYTON GENERAL CLOUDY    64  61  90 CALM      30.09S
WILMINGTON     PTCLDY    66  61  84 E5        30.09F
$$

OHZ036-037-039>041-045>050-054>059-063>069-073>076-082>088-010900-
  CENTRAL AND SOUTHEAST OHIO

CITY           SKY/WX    TMP DP  RH WIND       PRES   REMARKS
COLUMBUS       CLEAR     66  60  81 CALM      30.09F
OSU AIRPORT    CLEAR     62  59  90 CALM      30.10S
BOLTON FIELD   PTCLDY    59  59  99 CALM      30.10S FOG
RICKENBACK AFB CLEAR     63  58  84 CALM      30.09S HAZE
NEWARK         FOG       59  57  93 CALM      30.10S VSB 1/2
MARION         CLEAR     59  56  89 S3        30.10S
LANCASTER      CLOUDY    61  59  93 CALM      30.10F
ZANESVILLE     PTCLDY    62  58  86 CALM      30.11S
NEW PHILLY     PTCLDY    58  58 100 CALM      30.11F FOG
$$



USA.gov is the U.S. government's official web portal to all federal, state and local government web resources and services.